Back to catalog

STARLINK-34511

AliveCommunicationsVLEO
NORAD 65214·PAYLOAD·🇺🇸 United States

Launched Aug 14, 2025 from Cape Canaveral Space Force Station

Loading…

Next Passes (next 24 hours)

TLE

FreshSource: CelesTrak SupGP

Epoch: Sep 14, 2026, 15:18 UTC

1 65214C 25176S   26257.63798611 -.00001451  00000+0 -42879-4 0  2575
2 65214  53.1601 351.2818 0001362  75.8290 258.6897 15.34378274    17

Track STARLINK-34511 in real time with AllMySat

Download on the App Store